Location: Vancouver
(49.2500°N, 123.1330°W)
Time: 21:24:58
(UTC-07:00)

BREEZE-M DEB (TANK) - Visible Passes

Search period start: 29 May 2015 00:00
Search period end: 08 June 2015 00:00
Orbit: 287 x 13521 km, 49.6° (Epoch: 27 May)

Date Brightness Start Highest point End Pass type
(mag) Time Alt. Az. Time Alt. Az. Time Alt. Az.
29 May 7.7 00:43:36 10° SSW 02:29:20 74° SSE 02:52:58 10° ENE visible
29 May 8.3 21:48:48 10° SSE 23:12:02 41° ESE 23:53:02 10° ENE visible
30 May 7.2 02:25:41 10° SW 04:03:24 86° SSE 04:19:59 10° ENE visible
30 May 8.2 23:07:32 10° S 00:49:38 60° SE 01:21:49 10° ENE visible
31 May 6.6 04:21:21 10° WSW 05:35:06 89° N 05:46:34 10° E visible
31 May 8.5 20:35:36 10° SE 21:31:24 26° ESE 22:18:12 10° ENE visible
01 Jun 7.7 00:38:33 10° SSW 02:25:58 77° SSE 02:49:20 10° ENE visible
01 Jun 8.3 21:40:05 10° SSE 23:08:13 45° SE 23:49:33 10° ENE visible
02 Jun 7.2 02:22:16 10° SW 03:59:56 88° SSE 04:16:14 10° E visible
02 Jun 8.1 23:00:57 10° S 00:45:57 64° SE 01:18:01 10° ENE visible
03 Jun 6.6 04:19:12 10° W 05:31:27 90° N 05:42:41 10° E visible
03 Jun 8.4 20:23:37 10° SE 21:26:58 30° ESE 22:15:06 10° ENE visible
04 Jun 7.7 00:33:27 10° SW 02:22:17 79° SSE 02:45:22 10° ENE visible
04 Jun 8.2 21:31:39 10° S 23:04:03 49° SE 23:45:41 10° ENE visible
05 Jun 7.1 02:18:44 10° WSW 03:56:09 89° S 04:12:10 10° E visible
05 Jun 8.1 22:54:24 10° SSW 00:41:56 67° SE 01:13:52 10° ENE visible
06 Jun 6.5 04:16:42 10° W 05:27:27 89° S 05:38:29 10° ESE visible
06 Jun 8.4 20:12:19 10° SE 21:22:10 33° ESE 22:11:28 10° ENE visible
07 Jun 7.7 00:28:16 10° SW 02:18:17 82° SSE 02:41:06 10° ENE visible
07 Jun 8.2 21:23:27 10° S 22:59:31 52° SE 23:41:26 10° ENE visible
